Time,TemperatureF,DewpointF,PressureIn,WindDirection,WindDirectionDegrees,WindSpeedMPH,WindSpeedGustMPH,Humidity,HourlyPrecipIn,Conditions,Clouds,dailyrainin,SoftwareType,DateUTC
2013-05-30 00:12:00,65.1,62.0,30.15,SE,134,0.0,0.0,88,0.00,,,0.00,weatherlink.com 1.10,2013-05-30 04:12:00,
2013-05-30 00:27:00,64.6,61.0,30.15,SE,134,0.0,0.0,89,0.00,,,0.00,weatherlink.com 1.10,2013-05-30 04:27:00,
2013-05-30 00:42:00,64.4,61.0,30.15,NE,36,0.0,0.0,89,0.00,,,0.00,weatherlink.com 1.10,2013-05-30 04:42:00,
2013-05-30 00:57:00,64.2,61.0,30.15,NE,36,0.0,0.0,89,0.00,,,0.00,weatherlink.com 1.10,2013-05-30 04:57:00,
2013-05-30 01:12:00,63.8,61.0,30.14,NE,36,0.0,0.0,90,0.00,,,0.00,weatherlink.com 1.10,2013-05-30 05:12:00,
2013-05-30 01:27:00,63.6,61.0,30.14,NE,36,0.0,0.0,91,0.00,,,0.00,weatherlink.com 1.10,2013-05-30 05:27:00,
2013-05-30 01:42:00,63.5,61.0,30.15,NE,34,0.0,0.0,91,0.00,,,0.00,weatherlink.com 1.10,2013-05-30 05:42:00,
2013-05-30 01:57:00,63.6,61.0,30.14,North,352,0.0,0.0,91,0.00,,,0.00,weatherlink.com 1.10,2013-05-30 05:57:00,
2013-05-30 02:12:00,63.5,61.0,30.15,North,352,0.0,0.0,91,0.00,,,0.00,weatherlink.com 1.10,2013-05-30 06:12:00,
2013-05-30 02:27:00,62.9,60.0,30.15,North,352,1.0,1.0,91,0.00,,,0.00,weatherlink.com 1.10,2013-05-30 06:27:00,
2013-05-30 02:42:00,62.9,61.0,30.16,North,352,0.0,1.0,92,0.00,,,0.00,weatherlink.com 1.10,2013-05-30 06:42:00,
2013-05-30 02:57:00,62.7,60.0,30.16,North,4,0.0,2.0,92,0.00,,,0.00,weatherlink.com 1.10,2013-05-30 06:57:00,
2013-05-30 03:12:00,62.5,60.0,30.16,North,9,0.0,2.0,92,0.00,,,0.00,weatherlink.com 1.10,2013-05-30 07:12:00,
2013-05-30 03:27:00,62.5,61.0,30.16,North,354,2.0,2.0,93,0.00,,,0.00,weatherlink.com 1.10,2013-05-30 07:27:00,
2013-05-30 03:42:00,63.0,60.0,30.16,North,11,1.0,3.0,91,0.00,,,0.00,weatherlink.com 1.10,2013-05-30 07:42:00,
2013-05-30 03:57:00,63.1,61.0,30.16,North,8,1.0,3.0,91,0.00,,,0.00,weatherlink.com 1.10,2013-05-30 07:57:00,
2013-05-30 04:12:00,63.0,60.0,30.17,North,4,0.0,1.0,91,0.00,,,0.00,weatherlink.com 1.10,2013-05-30 08:12:00,
2013-05-30 04:27:00,62.9,60.0,30.17,North,5,1.0,1.0,91,0.00,,,0.00,weatherlink.com 1.10,2013-05-30 08:27:00,
2013-05-30 04:42:00,63.2,61.0,30.18,NE,49,0.0,2.0,91,0.00,,,0.00,weatherlink.com 1.10,2013-05-30 08:42:00,
2013-05-30 04:57:00,63.4,61.0,30.18,North,8,1.0,1.0,91,0.00,,,0.00,weatherlink.com 1.10,2013-05-30 08:57:00,
2013-05-30 05:12:00,63.6,61.0,30.19,North,1,2.0,3.0,91,0.00,,,0.00,weatherlink.com 1.10,2013-05-30 09:12:00,
2013-05-30 05:27:00,63.9,61.0,30.20,SW,217,1.0,3.0,90,0.00,,,0.00,weatherlink.com 1.10,2013-05-30 09:27:00,
2013-05-30 05:42:00,64.7,62.0,30.20,SSW,205,1.0,2.0,90,0.00,,,0.00,weatherlink.com 1.10,2013-05-30 09:42:00,
2013-05-30 05:57:00,64.9,62.0,30.21,SSW,200,0.0,1.0,89,0.00,,,0.00,weatherlink.com 1.10,2013-05-30 09:57:00,
2013-05-30 06:12:00,64.0,61.0,30.21,SSW,200,0.0,1.0,90,0.00,,,0.00,weatherlink.com 1.10,2013-05-30 10:12:00,
2013-05-30 06:27:00,63.1,61.0,30.21,SSW,200,0.0,0.0,91,0.00,,,0.00,weatherlink.com 1.10,2013-05-30 10:27:00,
2013-05-30 06:42:00,62.7,60.0,30.22,SSW,200,0.0,0.0,92,0.00,,,0.00,weatherlink.com 1.10,2013-05-30 10:42:00,
2013-05-30 06:57:00,62.6,61.0,30.23,SSW,200,0.0,0.0,93,0.00,,,0.00,weatherlink.com 1.10,2013-05-30 10:57:00,
2013-05-30 07:12:00,62.7,61.0,30.23,SSW,200,0.0,0.0,93,0.00,,,0.00,weatherlink.com 1.10,2013-05-30 11:12:00,
2013-05-30 07:27:00,63.0,61.0,30.23,SSW,200,0.0,0.0,93,0.00,,,0.00,weatherlink.com 1.10,2013-05-30 11:27:00,
2013-05-30 07:42:00,63.5,62.0,30.23,SSW,193,0.0,0.0,93,0.00,,,0.00,weatherlink.com 1.10,2013-05-30 11:42:00,
2013-05-30 07:57:00,64.1,62.0,30.23,South,188,0.0,0.0,93,0.00,,,0.00,weatherlink.com 1.10,2013-05-30 11:57:00,
2013-05-30 08:12:00,65.2,63.0,30.23,SSE,154,0.0,1.0,91,0.00,,,0.00,weatherlink.com 1.10,2013-05-30 12:12:00,
2013-05-30 08:27:00,66.2,63.0,30.23,SE,141,0.0,1.0,89,0.00,,,0.00,weatherlink.com 1.10,2013-05-30 12:27:00,
2013-05-30 08:42:00,66.9,63.0,30.24,SE,139,0.0,1.0,88,0.00,,,0.00,weatherlink.com 1.10,2013-05-30 12:42:00,
2013-05-30 08:57:00,67.7,63.0,30.25,SE,145,0.0,2.0,86,0.00,,,0.00,weatherlink.com 1.10,2013-05-30 12:57:00,
2013-05-30 09:13:00,68.4,63.0,30.24,South,170,1.0,2.0,84,0.00,,,0.00,weatherlink.com 1.10,2013-05-30 13:13:00,
2013-05-30 09:28:00,69.3,64.0,30.24,SSE,148,0.0,2.0,82,0.00,,,0.00,weatherlink.com 1.10,2013-05-30 13:28:00,
2013-05-30 09:43:00,70.1,64.0,30.24,SE,143,0.0,2.0,81,0.00,,,0.00,weatherlink.com 1.10,2013-05-30 13:43:00,
2013-05-30 09:58:00,71.1,64.0,30.24,SSE,155,0.0,2.0,78,0.00,,,0.00,weatherlink.com 1.10,2013-05-30 13:58:00,
2013-05-30 10:13:00,71.9,65.0,30.23,SE,143,1.0,2.0,78,0.00,,,0.00,weatherlink.com 1.10,2013-05-30 14:13:00,
2013-05-30 10:28:00,72.5,64.0,30.23,SE,129,0.0,2.0,75,0.00,,,0.00,weatherlink.com 1.10,2013-05-30 14:28:00,
2013-05-30 10:43:00,73.1,65.0,30.23,ESE,120,1.0,2.0,75,0.00,,,0.00,weatherlink.com 1.10,2013-05-30 14:43:00,
2013-05-30 10:58:00,73.3,64.0,30.23,SSE,158,1.0,6.0,73,0.00,,,0.00,weatherlink.com 1.10,2013-05-30 14:58:00,
2013-05-30 11:13:00,74.1,65.0,30.22,SE,140,1.0,2.0,72,0.00,,,0.00,weatherlink.com 1.10,2013-05-30 15:13:00,
2013-05-30 11:28:00,75.0,65.0,30.22,SE,141,1.0,4.0,70,0.00,,,0.00,weatherlink.com 1.10,2013-05-30 15:28:00,
2013-05-30 11:43:00,76.0,65.0,30.22,SSE,159,2.0,2.0,68,0.00,,,0.00,weatherlink.com 1.10,2013-05-30 15:43:00,
2013-05-30 11:58:00,77.5,63.0,30.22,SSE,153,2.0,4.0,61,0.00,,,0.00,weatherlink.com 1.10,2013-05-30 15:58:00,
2013-05-30 12:13:00,78.9,63.0,30.22,SE,145,1.0,4.0,59,0.00,,,0.00,weatherlink.com 1.10,2013-05-30 16:13:00,
2013-05-30 12:28:00,79.7,64.0,30.21,SSE,162,1.0,4.0,58,0.00,,,0.00,weatherlink.com 1.10,2013-05-30 16:28:00,
2013-05-30 12:43:00,80.4,65.0,30.20,SSE,163,3.0,3.0,59,0.00,,,0.00,weatherlink.com 1.10,2013-05-30 16:43:00,
2013-05-30 12:58:00,80.2,63.0,30.20,SSE,160,2.0,3.0,56,0.00,,,0.00,weatherlink.com 1.10,2013-05-30 16:58:00,
2013-05-30 13:13:00,79.7,64.0,30.20,SSE,150,1.0,3.0,58,0.00,,,0.00,weatherlink.com 1.10,2013-05-30 17:13:00,
2013-05-30 13:28:00,80.3,64.0,30.20,SSE,150,1.0,4.0,58,0.00,,,0.00,weatherlink.com 1.10,2013-05-30 17:28:00,
2013-05-30 13:43:00,80.1,63.0,30.19,SSE,160,1.0,4.0,56,0.00,,,0.00,weatherlink.com 1.10,2013-05-30 17:43:00,
2013-05-30 13:58:00,80.7,63.0,30.18,SE,138,1.0,4.0,56,0.00,,,0.00,weatherlink.com 1.10,2013-05-30 17:58:00,
2013-05-30 14:13:00,81.5,63.0,30.18,SSE,167,0.0,3.0,54,0.00,,,0.00,weatherlink.com 1.10,2013-05-30 18:13:00,
2013-05-30 14:28:00,82.4,63.0,30.18,SSE,150,0.0,3.0,53,0.00,,,0.00,weatherlink.com 1.10,2013-05-30 18:28:00,
2013-05-30 14:43:00,83.3,64.0,30.18,SE,131,0.0,2.0,53,0.00,,,0.00,weatherlink.com 1.10,2013-05-30 18:43:00,
2013-05-30 14:59:00,83.5,63.0,30.17,SSE,147,2.0,4.0,51,0.00,,,0.00,weatherlink.com 1.10,2013-05-30 18:59:00,
2013-05-30 15:13:00,83.6,64.0,30.17,SE,134,0.0,3.0,52,0.00,,,0.00,weatherlink.com 1.10,2013-05-30 19:13:00,
2013-05-30 15:29:00,84.1,63.0,30.16,SSE,156,1.0,4.0,50,0.00,,,0.00,weatherlink.com 1.10,2013-05-30 19:29:00,
2013-05-30 15:44:00,84.2,65.0,30.16,SSE,148,1.0,2.0,53,0.00,,,0.00,weatherlink.com 1.10,2013-05-30 19:44:00,
2013-05-30 15:59:00,82.4,63.0,30.16,SSE,155,0.0,2.0,53,0.00,,,0.00,weatherlink.com 1.10,2013-05-30 19:59:00,
2013-05-30 16:14:00,81.0,64.0,30.16,SSE,150,1.0,3.0,56,0.00,,,0.00,weatherlink.com 1.10,2013-05-30 20:14:00,
2013-05-30 16:29:00,80.4,63.0,30.15,SSE,155,0.0,2.0,56,0.00,,,0.00,weatherlink.com 1.10,2013-05-30 20:29:00,
2013-05-30 16:44:00,80.2,63.0,30.15,SE,127,2.0,3.0,56,0.00,,,0.00,weatherlink.com 1.10,2013-05-30 20:44:00,
2013-05-30 16:59:00,79.7,63.0,30.15,SSE,153,1.0,3.0,57,0.00,,,0.00,weatherlink.com 1.10,2013-05-30 20:59:00,
2013-05-30 17:14:00,78.4,63.0,30.15,SE,145,0.0,3.0,59,0.00,,,0.00,weatherlink.com 1.10,2013-05-30 21:14:00,
2013-05-30 17:29:00,77.3,62.0,30.15,SE,141,1.0,2.0,60,0.00,,,0.00,weatherlink.com 1.10,2013-05-30 21:29:00,
2013-05-30 17:44:00,77.0,63.0,30.14,SSW,205,0.0,1.0,62,0.00,,,0.00,weatherlink.com 1.10,2013-05-30 21:44:00,
2013-05-30 17:59:00,77.6,63.0,30.14,SSE,147,1.0,2.0,61,0.00,,,0.00,weatherlink.com 1.10,2013-05-30 21:59:00,
2013-05-30 18:14:00,76.8,63.0,30.14,SSE,150,1.0,3.0,62,0.00,,,0.00,weatherlink.com 1.10,2013-05-30 22:14:00,
2013-05-30 18:29:00,76.0,62.0,30.14,SSE,149,1.0,2.0,63,0.00,,,0.00,weatherlink.com 1.10,2013-05-30 22:29:00,
2013-05-30 18:44:00,75.5,63.0,30.14,SSE,150,1.0,2.0,65,0.00,,,0.00,weatherlink.com 1.10,2013-05-30 22:44:00,
2013-05-30 18:59:00,75.1,63.0,30.13,ESE,123,1.0,2.0,66,0.00,,,0.00,weatherlink.com 1.10,2013-05-30 22:59:00,
2013-05-30 19:14:00,74.7,63.0,30.13,SE,141,1.0,3.0,68,0.00,,,0.00,weatherlink.com 1.10,2013-05-30 23:14:00,
2013-05-30 19:29:00,74.5,63.0,30.13,SE,145,1.0,4.0,68,0.00,,,0.00,weatherlink.com 1.10,2013-05-30 23:29:00,
2013-05-30 19:44:00,74.1,64.0,30.13,SSE,153,2.0,2.0,70,0.00,,,0.00,weatherlink.com 1.10,2013-05-30 23:44:00,
2013-05-30 19:59:00,73.8,64.0,30.13,SE,139,0.0,2.0,71,0.00,,,0.00,weatherlink.com 1.10,2013-05-30 23:59:00,
2013-05-30 20:14:00,73.5,64.0,30.14,SSW,198,1.0,2.0,71,0.00,,,0.00,weatherlink.com 1.10,2013-05-31 00:14:00,
2013-05-30 20:29:00,73.2,64.0,30.13,SSE,153,1.0,3.0,72,0.00,,,0.00,weatherlink.com 1.10,2013-05-31 00:29:00,
2013-05-30 20:44:00,72.8,64.0,30.14,SE,146,0.0,1.0,73,0.00,,,0.00,weatherlink.com 1.10,2013-05-31 00:44:00,
2013-05-30 20:59:00,72.2,64.0,30.14,SE,137,1.0,1.0,74,0.00,,,0.00,weatherlink.com 1.10,2013-05-31 00:59:00,
2013-05-30 21:14:00,71.9,64.0,30.14,SSE,149,1.0,2.0,75,0.00,,,0.00,weatherlink.com 1.10,2013-05-31 01:14:00,
2013-05-30 21:29:00,71.6,64.0,30.14,SSE,148,0.0,1.0,76,0.00,,,0.00,weatherlink.com 1.10,2013-05-31 01:29:00,
2013-05-30 21:44:00,71.3,63.0,30.15,SSE,148,0.0,1.0,76,0.00,,,0.00,weatherlink.com 1.10,2013-05-31 01:44:00,
2013-05-30 21:59:00,70.9,63.0,30.15,SSE,150,0.0,0.0,77,0.00,,,0.00,weatherlink.com 1.10,2013-05-31 01:59:00,
2013-05-30 22:14:00,70.6,63.0,30.15,SSE,150,0.0,0.0,78,0.00,,,0.00,weatherlink.com 1.10,2013-05-31 02:14:00,
2013-05-30 22:29:00,70.1,63.0,30.16,SSE,150,0.0,0.0,79,0.00,,,0.00,weatherlink.com 1.10,2013-05-31 02:29:00,
2013-05-30 22:44:00,68.7,63.0,30.16,SSE,151,0.0,0.0,82,0.00,,,0.00,weatherlink.com 1.10,2013-05-31 02:44:00,
2013-05-30 22:59:00,67.7,63.0,30.16,SSE,150,0.0,0.0,84,0.00,,,0.00,weatherlink.com 1.10,2013-05-31 02:59:00,
2013-05-30 23:14:00,67.1,63.0,30.16,SSE,150,0.0,0.0,85,0.00,,,0.00,weatherlink.com 1.10,2013-05-31 03:14:00,
2013-05-30 23:29:00,66.6,62.0,30.16,SSE,151,0.0,0.0,86,0.00,,,0.00,weatherlink.com 1.10,2013-05-31 03:29:00,
2013-05-30 23:44:00,66.2,62.0,30.17,SSE,150,0.0,0.0,87,0.00,,,0.00,weatherlink.com 1.10,2013-05-31 03:44:00,
2013-05-30 23:59:00,66.1,62.0,30.17,SSE,151,0.0,0.0,87,0.00,,,0.00,weatherlink.com 1.10,2013-05-31 03:59:00,